Hourly Data Report for September 20, 2016

SHEARWATER RCS
NOVA SCOTIA

44°37'47.000" N
63°30'48.000" W
24.00 m
8205092
71264
AAW

Download Data

Hourly Data (September 2016)
Hourly Data Report for September 20, 2016
TIME Temp Definition
°C
Dew Point Definition
°C
Rel Hum Definition
%
Wind Dir Definition
10's deg

Wind Spd Definition
km/h
Visibility Definition
km
Stn Press Definition
kPa
Hmdx Definition


Wind Chill Definition


Weather Definition


00:00 18.2 17.5 96 24 5   101.70     LegendNANA
01:00 18.1 17.4 96 19 4   101.68     LegendNANA
02:00 18.0 17.4 96 24 3   101.67     LegendNANA
03:00 18.0 17.4 96   0   101.65     LegendNANA
04:00 18.2 17.5 96 12 1   101.63     LegendNANA
05:00 17.5 16.9 96   0   101.63     LegendNANA
06:00 17.8 17.1 96   0   101.62     LegendNANA
07:00 18.3 17.6 96 28 2   101.66     LegendNANA
08:00 18.7 18.0 96 29 3   101.64     LegendNANA
09:00 19.0 18.2 96 28 1   101.67     LegendNANA
10:00 18.8 18.0 95 26 4   101.66     LegendNANA
11:00 18.7 17.8 95 18 4   101.67     LegendNANA
12:00 19.0 17.9 93 16 9   101.61     LegendNANA
13:00 20.4 18.1 87 16 11   101.55 26   LegendNANA
14:00 19.5 18.2 92 14 3   101.54     LegendNANA
15:00 20.8 18.5 87 16 10   101.44 27   LegendNANA
16:00 21.9 18.6 81 19 15   101.46 28   LegendNANA
17:00 20.3 18.1 87 19 12   101.46 26   LegendNANA
18:00 19.7 18.1 91 21 7   101.44     LegendNANA
19:00 18.8 17.5 92 23 9   101.43     LegendNANA
20:00 18.7 17.6 93 24 5   101.48     LegendNANA
21:00 18.6 17.6 94 23 5   101.45     LegendNANA
22:00 18.1 17.2 94 0 1   101.45     LegendNANA
23:00 17.5 16.6 95 20 2   101.43     LegendNANA

Notes on Data Quality.

Legend

  • E = Estimated
  • M = Missing
  • NA = Not Available*
  • [empty] = Indicates an unobserved value
Date modified: